Time,TemperatureF,DewpointF,PressureIn,WindDirection,WindDirectionDegrees,WindSpeedMPH,WindSpeedGustMPH,Humidity,HourlyPrecipIn,Conditions,Clouds,dailyrainin,SoftwareType,DateUTC
2013-07-25 00:08:00,65.6,56.0,29.96,NNW,336,9.0,17.0,71,0.01,,,0.00,weatherlink.com 1.10,2013-07-25 04:08:00,
2013-07-25 00:23:00,65.1,55.0,29.97,NNW,344,12.0,16.0,69,0.01,,,0.00,weatherlink.com 1.10,2013-07-25 04:23:00,
2013-07-25 00:38:00,64.4,54.0,29.96,NNW,346,7.0,14.0,68,0.01,,,0.00,weatherlink.com 1.10,2013-07-25 04:38:00,
2013-07-25 00:53:00,64.1,54.0,29.97,North,355,12.0,13.0,69,0.01,,,0.00,weatherlink.com 1.10,2013-07-25 04:53:00,
2013-07-25 01:08:00,63.6,54.0,29.97,NNW,342,8.0,11.0,70,0.00,,,0.00,weatherlink.com 1.10,2013-07-25 05:08:00,
2013-07-25 01:23:00,63.1,54.0,29.96,North,360,8.0,12.0,71,0.00,,,0.00,weatherlink.com 1.10,2013-07-25 05:23:00,
2013-07-25 01:38:00,63.0,54.0,29.97,North,5,5.0,10.0,73,0.00,,,0.00,weatherlink.com 1.10,2013-07-25 05:38:00,
2013-07-25 01:53:00,62.7,54.0,29.98,NNW,331,4.0,9.0,74,0.00,,,0.00,weatherlink.com 1.10,2013-07-25 05:53:00,
2013-07-25 02:08:00,62.2,53.0,29.97,NW,323,6.0,10.0,73,0.00,,,0.00,weatherlink.com 1.10,2013-07-25 06:08:00,
2013-07-25 02:23:00,61.9,54.0,29.97,NNE,16,7.0,10.0,74,0.00,,,0.00,weatherlink.com 1.10,2013-07-25 06:23:00,
2013-07-25 02:38:00,61.5,53.0,29.97,North,355,5.0,8.0,74,0.00,,,0.00,weatherlink.com 1.10,2013-07-25 06:38:00,
2013-07-25 02:53:00,61.6,53.0,29.98,NE,40,5.0,6.0,74,0.00,,,0.00,weatherlink.com 1.10,2013-07-25 06:53:00,
2013-07-25 03:08:00,61.4,53.0,29.98,NNE,17,4.0,7.0,74,0.00,,,0.00,weatherlink.com 1.10,2013-07-25 07:08:00,
2013-07-25 03:23:00,61.5,55.0,29.98,NE,36,5.0,8.0,78,0.00,,,0.00,weatherlink.com 1.10,2013-07-25 07:23:00,
2013-07-25 03:38:00,61.2,54.0,29.99,NNE,13,5.0,7.0,76,0.00,,,0.00,weatherlink.com 1.10,2013-07-25 07:38:00,
2013-07-25 03:53:00,61.1,54.0,29.99,NNE,31,1.0,9.0,77,0.00,,,0.00,weatherlink.com 1.10,2013-07-25 07:53:00,
2013-07-25 04:09:00,61.1,54.0,30.00,NNE,15,3.0,7.0,77,0.00,,,0.00,weatherlink.com 1.10,2013-07-25 08:09:00,
2013-07-25 04:24:00,61.0,54.0,29.99,NNE,15,6.0,6.0,79,0.00,,,0.00,weatherlink.com 1.10,2013-07-25 08:24:00,
2013-07-25 04:40:00,60.8,54.0,30.00,North,351,4.0,6.0,78,0.00,,,0.00,weatherlink.com 1.10,2013-07-25 08:40:00,
2013-07-25 04:54:00,61.0,53.0,30.01,NE,44,3.0,9.0,75,0.00,,,0.00,weatherlink.com 1.10,2013-07-25 08:54:00,
2013-07-25 05:09:00,61.0,53.0,30.02,North,5,3.0,6.0,76,0.00,,,0.00,weatherlink.com 1.10,2013-07-25 09:09:00,
2013-07-25 05:24:00,61.0,53.0,30.02,North,5,4.0,8.0,74,0.00,,,0.00,weatherlink.com 1.10,2013-07-25 09:24:00,
2013-07-25 05:39:00,61.0,52.0,30.02,NE,43,6.0,9.0,73,0.00,,,0.00,weatherlink.com 1.10,2013-07-25 09:39:00,
2013-07-25 05:54:00,61.0,52.0,30.02,NNE,29,6.0,8.0,73,0.00,,,0.00,weatherlink.com 1.10,2013-07-25 09:54:00,
2013-07-25 06:09:00,61.0,52.0,30.02,NE,51,7.0,10.0,73,0.00,,,0.00,weatherlink.com 1.10,2013-07-25 10:09:00,
2013-07-25 06:24:00,60.8,52.0,30.04,NE,35,3.0,10.0,73,0.00,,,0.00,weatherlink.com 1.10,2013-07-25 10:24:00,
2013-07-25 06:39:00,60.8,52.0,30.04,NE,42,7.0,11.0,72,0.00,,,0.00,weatherlink.com 1.10,2013-07-25 10:39:00,
2013-07-25 06:54:00,60.9,53.0,30.04,NE,34,10.0,10.0,74,0.00,,,0.00,weatherlink.com 1.10,2013-07-25 10:54:00,
2013-07-25 07:09:00,60.9,52.0,30.04,NNE,30,11.0,14.0,73,0.00,,,0.00,weatherlink.com 1.10,2013-07-25 11:09:00,
2013-07-25 07:24:00,60.7,52.0,30.04,NE,41,7.0,12.0,73,0.00,,,0.00,weatherlink.com 1.10,2013-07-25 11:24:00,
2013-07-25 07:39:00,60.7,52.0,30.05,NE,45,7.0,13.0,73,0.00,,,0.00,weatherlink.com 1.10,2013-07-25 11:39:00,
2013-07-25 07:54:00,60.8,53.0,30.06,NE,45,8.0,9.0,76,0.00,,,0.00,weatherlink.com 1.10,2013-07-25 11:54:00,
2013-07-25 08:09:00,60.7,53.0,30.06,NNE,32,7.0,12.0,76,0.00,,,0.00,weatherlink.com 1.10,2013-07-25 12:09:00,
2013-07-25 08:24:00,60.8,54.0,30.07,NE,38,10.0,11.0,77,0.00,,,0.00,weatherlink.com 1.10,2013-07-25 12:24:00,
2013-07-25 08:39:00,60.9,53.0,30.08,NE,35,9.0,12.0,75,0.00,,,0.00,weatherlink.com 1.10,2013-07-25 12:39:00,
2013-07-25 08:54:00,60.9,54.0,30.08,NE,54,6.0,12.0,78,0.00,,,0.00,weatherlink.com 1.10,2013-07-25 12:54:00,
2013-07-25 09:09:00,61.0,54.0,30.08,NNE,22,5.0,12.0,77,0.00,,,0.00,weatherlink.com 1.10,2013-07-25 13:09:00,
2013-07-25 09:24:00,61.2,55.0,30.08,East,86,10.0,11.0,79,0.00,,,0.00,weatherlink.com 1.10,2013-07-25 13:24:00,
2013-07-25 09:39:00,61.2,54.0,30.08,NE,42,11.0,14.0,77,0.00,,,0.00,weatherlink.com 1.10,2013-07-25 13:39:00,
2013-07-25 09:54:00,61.3,54.0,30.09,ENE,57,10.0,14.0,77,0.00,,,0.00,weatherlink.com 1.10,2013-07-25 13:54:00,
2013-07-25 10:09:00,61.7,55.0,30.09,NE,49,11.0,15.0,79,0.00,,,0.00,weatherlink.com 1.10,2013-07-25 14:09:00,
2013-07-25 10:24:00,61.5,54.0,30.11,ENE,57,9.0,13.0,76,0.00,,,0.00,weatherlink.com 1.10,2013-07-25 14:24:00,
2013-07-25 10:39:00,61.4,55.0,30.11,ENE,69,8.0,13.0,78,0.00,,,0.00,weatherlink.com 1.10,2013-07-25 14:39:00,
2013-07-25 10:54:00,61.6,54.0,30.10,ENE,70,13.0,16.0,77,0.00,,,0.00,weatherlink.com 1.10,2013-07-25 14:54:00,
2013-07-25 11:09:00,61.6,54.0,30.10,NE,48,13.0,15.0,77,0.00,,,0.00,weatherlink.com 1.10,2013-07-25 15:09:00,
2013-07-25 11:24:00,61.5,54.0,30.10,ENE,72,10.0,16.0,77,0.00,,,0.00,weatherlink.com 1.10,2013-07-25 15:24:00,
2013-07-25 11:39:00,61.6,55.0,30.11,East,86,8.0,12.0,78,0.00,,,0.00,weatherlink.com 1.10,2013-07-25 15:39:00,
2013-07-25 11:54:00,61.5,55.0,30.11,ENE,69,8.0,14.0,78,0.00,,,0.00,weatherlink.com 1.10,2013-07-25 15:54:00,
2013-07-25 12:09:00,61.5,55.0,30.11,NE,44,8.0,11.0,78,0.00,,,0.00,weatherlink.com 1.10,2013-07-25 16:09:00,
2013-07-25 12:24:00,61.4,55.0,30.11,NE,54,11.0,14.0,78,0.00,,,0.00,weatherlink.com 1.10,2013-07-25 16:24:00,
2013-07-25 12:39:00,61.5,55.0,30.11,NE,43,11.0,11.0,79,0.00,,,0.00,weatherlink.com 1.10,2013-07-25 16:39:00,
2013-07-25 12:54:00,61.4,55.0,30.11,NE,46,6.0,10.0,80,0.00,,,0.00,weatherlink.com 1.10,2013-07-25 16:54:00,
2013-07-25 13:09:00,61.5,55.0,30.11,NE,49,4.0,10.0,80,0.00,,,0.00,weatherlink.com 1.10,2013-07-25 17:09:00,
2013-07-25 13:24:00,61.6,55.0,30.11,NE,36,8.0,10.0,80,0.00,,,0.00,weatherlink.com 1.10,2013-07-25 17:24:00,
2013-07-25 13:39:00,61.7,56.0,30.10,NE,46,6.0,10.0,80,0.00,,,0.00,weatherlink.com 1.10,2013-07-25 17:39:00,
2013-07-25 13:54:00,62.1,56.0,30.10,NE,45,6.0,10.0,80,0.00,,,0.00,weatherlink.com 1.10,2013-07-25 17:54:00,
2013-07-25 14:09:00,62.4,56.0,30.09,NE,56,7.0,10.0,80,0.00,,,0.00,weatherlink.com 1.10,2013-07-25 18:09:00,
2013-07-25 14:25:00,62.9,56.0,30.09,ENE,64,4.0,9.0,78,0.00,,,0.00,weatherlink.com 1.10,2013-07-25 18:25:00,
2013-07-25 14:40:00,63.0,56.0,30.09,NE,48,6.0,12.0,79,0.00,,,0.00,weatherlink.com 1.10,2013-07-25 18:40:00,
2013-07-25 14:55:00,63.3,56.0,30.09,NE,37,6.0,11.0,78,0.00,,,0.00,weatherlink.com 1.10,2013-07-25 18:55:00,
2013-07-25 15:10:00,63.5,56.0,30.09,North,9,6.0,13.0,77,0.00,,,0.00,weatherlink.com 1.10,2013-07-25 19:10:00,
2013-07-25 15:25:00,63.6,56.0,30.09,ENE,70,10.0,13.0,76,0.00,,,0.00,weatherlink.com 1.10,2013-07-25 19:25:00,
2013-07-25 15:40:00,63.6,56.0,30.09,ENE,68,7.0,14.0,76,0.00,,,0.00,weatherlink.com 1.10,2013-07-25 19:40:00,
2013-07-25 15:55:00,63.7,56.0,30.08,East,82,10.0,16.0,75,0.00,,,0.00,weatherlink.com 1.10,2013-07-25 19:55:00,
2013-07-25 16:10:00,63.6,56.0,30.08,NE,53,5.0,14.0,76,0.00,,,0.00,weatherlink.com 1.10,2013-07-25 20:10:00,
2013-07-25 16:25:00,63.5,56.0,30.08,NNE,30,7.0,9.0,77,0.00,,,0.00,weatherlink.com 1.10,2013-07-25 20:25:00,
2013-07-25 16:40:00,63.4,57.0,30.08,ENE,61,7.0,9.0,79,0.00,,,0.00,weatherlink.com 1.10,2013-07-25 20:40:00,
2013-07-25 16:55:00,63.2,57.0,30.09,East,84,6.0,10.0,80,0.00,,,0.00,weatherlink.com 1.10,2013-07-25 20:55:00,
2013-07-25 17:10:00,62.4,57.0,30.09,NE,37,4.0,8.0,83,0.00,,,0.00,weatherlink.com 1.10,2013-07-25 21:10:00,
2013-07-25 17:25:00,61.9,58.0,30.08,NE,44,4.0,6.0,87,0.00,,,0.00,weatherlink.com 1.10,2013-07-25 21:25:00,
2013-07-25 17:40:00,61.5,58.0,30.09,ENE,58,3.0,5.0,88,0.00,,,0.00,weatherlink.com 1.10,2013-07-25 21:40:00,
2013-07-25 17:55:00,61.2,58.0,30.08,ENE,62,5.0,8.0,88,0.00,,,0.00,weatherlink.com 1.10,2013-07-25 21:55:00,
2013-07-25 18:10:00,61.0,58.0,30.09,NE,42,3.0,7.0,89,0.00,,,0.00,weatherlink.com 1.10,2013-07-25 22:10:00,
2013-07-25 18:25:00,60.7,58.0,30.09,NE,42,0.0,5.0,90,0.00,,,0.00,weatherlink.com 1.10,2013-07-25 22:25:00,
2013-07-25 18:40:00,61.2,58.0,30.09,NE,56,2.0,8.0,90,0.00,,,0.00,weatherlink.com 1.10,2013-07-25 22:40:00,
2013-07-25 18:55:00,60.9,58.0,30.09,ENE,67,4.0,8.0,91,0.00,,,0.00,weatherlink.com 1.10,2013-07-25 22:55:00,
2013-07-25 19:10:00,60.9,59.0,30.09,ENE,69,3.0,5.0,92,0.00,,,0.00,weatherlink.com 1.10,2013-07-25 23:10:00,
2013-07-25 19:25:00,61.1,59.0,30.09,ENE,71,1.0,4.0,93,0.00,,,0.00,weatherlink.com 1.10,2013-07-25 23:25:00,
2013-07-25 19:40:00,61.4,60.0,30.09,ENE,70,3.0,4.0,94,0.00,,,0.00,weatherlink.com 1.10,2013-07-25 23:40:00,
2013-07-25 19:56:00,61.2,59.0,30.09,ENE,78,2.0,5.0,93,0.00,,,0.00,weatherlink.com 1.10,2013-07-25 23:56:00,
2013-07-25 20:10:00,61.3,60.0,30.09,ENE,61,2.0,4.0,94,0.00,,,0.00,weatherlink.com 1.10,2013-07-26 00:10:00,
2013-07-25 20:25:00,61.3,60.0,30.09,North,10,3.0,6.0,94,0.00,,,0.00,weatherlink.com 1.10,2013-07-26 00:25:00,
2013-07-25 20:40:00,61.3,60.0,30.09,NNE,18,3.0,6.0,94,0.00,,,0.00,weatherlink.com 1.10,2013-07-26 00:40:00,
2013-07-25 20:55:00,61.3,60.0,30.09,NNW,346,7.0,8.0,94,0.00,,,0.00,weatherlink.com 1.10,2013-07-26 00:55:00,
2013-07-25 21:10:00,61.1,60.0,30.09,North,355,4.0,9.0,95,0.00,,,0.00,weatherlink.com 1.10,2013-07-26 01:10:00,
2013-07-25 21:25:00,61.0,60.0,30.08,North,360,4.0,8.0,95,0.00,,,0.00,weatherlink.com 1.10,2013-07-26 01:25:00,
2013-07-25 21:40:00,60.7,59.0,30.08,North,360,3.0,5.0,95,0.00,,,0.00,weatherlink.com 1.10,2013-07-26 01:40:00,
2013-07-25 21:55:00,60.8,60.0,30.08,North,5,3.0,6.0,96,0.00,,,0.00,weatherlink.com 1.10,2013-07-26 01:55:00,
2013-07-25 22:10:00,60.9,60.0,30.09,North,5,5.0,7.0,96,0.00,,,0.00,weatherlink.com 1.10,2013-07-26 02:10:00,
2013-07-25 22:25:00,60.9,60.0,30.08,NNE,19,4.0,7.0,96,0.00,,,0.00,weatherlink.com 1.10,2013-07-26 02:25:00,
2013-07-25 22:40:00,60.8,60.0,30.08,North,10,5.0,6.0,96,0.00,,,0.00,weatherlink.com 1.10,2013-07-26 02:40:00,
2013-07-25 22:55:00,60.9,60.0,30.07,NNW,348,6.0,8.0,96,0.00,,,0.00,weatherlink.com 1.10,2013-07-26 02:55:00,
2013-07-25 23:10:00,61.3,60.0,30.07,North,355,4.0,8.0,96,0.00,,,0.00,weatherlink.com 1.10,2013-07-26 03:10:00,
2013-07-25 23:25:00,61.5,60.0,30.07,North,11,7.0,9.0,96,0.00,,,0.00,weatherlink.com 1.10,2013-07-26 03:25:00,
2013-07-25 23:40:00,61.6,61.0,30.07,NNW,346,8.0,10.0,96,0.00,,,0.00,weatherlink.com 1.10,2013-07-26 03:40:00,
2013-07-25 23:55:00,61.8,61.0,30.06,NNW,344,5.0,10.0,96,0.00,,,0.00,weatherlink.com 1.10,2013-07-26 03:55:00,